Flag for Austria Weather past 2 weeks in Gmünd, Lower Austria, Austria

Now
64 °F

Mild.


Feels Like: 64 °F
Forecast: 46 / 52 °F
Wind: 5 mph from Northwest

Location: Retz

Current Time: Sep 4, 2015 at 12:44:58 PM

Latest Report: Sep 4, 2015 at 12:00 PM


Visibility: N/A

Pressure: 29.98 "Hg

Humidity: 67%

Dew point: 53 °F

Location of GmündLocation

Historic Weather in Gmünd — Graph

°F

Gmünd temperature yesterday

Maximum temperature yesterday: 72 °F (at 3:00 PM)
Minimum temperature yesterday: 55 °F (at 4:00 AM)
Average temperature yesterday: 63 °F

Past Weeks' High & Low Weather Summary

 TemperatureHumidityPressure
High93 °F (Aug 30, 6:00 PM)98% (Aug 28, 8:00 AM)30.23 "Hg (Aug 28, 8:00 AM)
Low55 °F (Aug 26, 7:00 AM)22% (Aug 31, 5:00 PM)29.67 "Hg (Sep 1, 6:00 PM)
Average70 °F62%29.99 "Hg
* Reported Aug 20 11:00 AM — Sep 4 11:00 AM, Gmünd, Weather by CustomWeather, © 2015

Note: Actual official high and low records may vary slightly from our data, if they occured in-between our weather recording intervals... More about our weather records

Advertising

Gmünd weather history for previous 24 hours

 ConditionsComfort  
Time TempWeatherWind HumidityBarometerVisibility
11:00 AM
Fri, Sep 4
64 °FMild.6 mph72%29.97 "HgN/A
10:00 AM61 °FCool.6 mph82%29.96 "HgN/A
9:00 AM59 °FCool.5 mph88%29.95 "HgN/A
8:00 AM58 °FOvercast.5 mph90%29.95 "Hg16 mi
7:00 AM58 °FOvercast.2 mph94%29.94 "Hg16 mi
6:00 AM58 °FSprinkles. Overcast.5 mph91%29.93 "HgN/A
5:00 AM58 °FCool.6 mph91%29.91 "HgN/A
4:00 AM58 °FSprinkles. Overcast.5 mph91%29.91 "HgN/A
3:00 AM58 °FCool.6 mph91%29.90 "HgN/A
2:00 AM59 °FCool.2 mph94%29.90 "HgN/A
1:00 AM59 °FSprinkles. Overcast.5 mph91%29.89 "HgN/A
12:00 AM59 °FFog.5 mph92%29.88 "HgN/A
10:00 PM
Thu, Sep 3
60 °FCool.7 mph89%29.89 "HgN/A
9:00 PM66 °FMild.3 mph58%29.85 "HgN/A
8:00 PM66 °FOvercast.2 mph58%29.84 "Hg11 mi
7:00 PM68 °FMild.2 mph56%29.85 "HgN/A
6:00 PM69 °FMild.3 mph52%29.85 "HgN/A
5:00 PM71 °FMild.3 mph51%29.86 "HgN/A
4:00 PM70 °FMild.2 mph53%29.88 "HgN/A
3:00 PM72 °FMild.3 mph48%29.88 "HgN/A
2:00 PM69 °FMild.3 mph47%29.90 "HgN/A
1:00 PM71 °FMild.2 mph54%29.91 "HgN/A
12:00 PM67 °FMild.5 mph60%29.93 "HgN/A
Weather by CustomWeather, © 2015

See weather overviewHow to use our weather pages